Temp
55 55 56 56 56 56 53 49 40 48 50 41 42 40 42 46 47 49 46 46 45 42 40 40 42 41 44 46 45 38 41 33 27 31 35 36 33 32 31 29 22 21 19 23
55 54 54 55 55 55 50 44 43 48 47 36 37 39 41 44 44 45 44 43 44 44 43 37 41 42 47 45 45 42 40 32 27 28 30 31 31 32 32 31 29 23 18 27
55 55 55 55 54 55 49 43 34 41 42 41 39 38 38 40 43 43 44 43 44 41 39 43 39 39 43 41 42 48 46 34 30 30 29 30 28 31 33 35 25 28 29 33
54 55 55 55 54 54 48 43 37 39 33 36 39 39 38 37 38 42 43 40 41 40 35 37 36 39 40 42 45 42 40 31 31 31 31 32 32 34 34 30 33 27 34 31
53 54 55 55 55 55 45 39 38 39 35 37 37 38 36 37 39 38 36 35 38 38 36 39 34 37 35 34 37 38 38 31 29 26 31 31 29 33 34 35 34 33 34 33
55 55 53 54 54 53 43 44 45 41 37 35 33 35 37 38 41 40 43 41 38 35 38 42 42 43 42 40 35 35 34 32 27 25 28 28 25 29 31 33 36 35 29 37
54 54 54 54 53 52 46 44 43 38 32 34 35 38 39 38 39 38 39 41 39 40 44 43 40 36 35 36 36 38 33 32 30 23 24 17 29 30 34 34 36 37 36 37
54 54 53 53 53 53 46 46 43 38 32 35 35 35 36 38 40 39 39 40 41 43 39 33 29 28 29 30 33 34 37 33 27 23 20 27 32 32 30 29 30 33 35 33
53 53 53 53 53 52 47 45 46 41 33 34 38 37 36 33 33 31 37 37 38 40 34 30 23 22 24 25 25 31 35 35 29 26 21 19 24 29 32 35 25 32 32 29
53 53 53 52 52 52 46 43 46 40 32 36 38 35 35 38 35 33 34 34 34 38 32 29 26 24 31 24 24 23 26 29 25 26 24 28 34 34 35 25 28 30 31 30
53 52 53 53 52 52 47 42 45 41 36 35 39 41 38 38 38 33 34 33 33 31 30 29 28 27 27 27 27 23 24 23 23 27 24 21 32 32 30 34 28 31 30 31
53 52 52 52 52 52 50 40 44 45 39 34 39 44 47 46 44 40 36 34 32 34 31 31 30 28 27 26 23 26 24 29 24 28 27 32 34 33 34 33 32 31 31 32
52 52 52 52 52 52 49 42 41 40 33 33 33 35 40 41 41 44 35 33 38 34 36 31 30 27 29 23 24 22 25 29 26 28 28 30 34 34 33 33 32 33 32 32
52 52 52 52 52 51 50 42 41 39 34 29 31 38 36 39 40 40 41 40 37 36 35 31 29 28 31 27 27 27 27 27 25 25 27 29 30 32 34 33 33 32 32 32
51 51 51 51 52 51 47 43 42 41 36 29 29 31 34 34 37 37 38 38 34 32 30 30 28 30 29 24 23 19 25 26 24 25 32 34 30 31 32 31 31 31 31 30
50 50 50 50 51 50 41 34 39 42 40 32 25 30 29 31 34 35 35 35 33 33 32 30 30 29 30 23 22 27 25 28 32 31 28 30 26 27 28 30 31 31 32 32
50 50 50 50 50 43 35 32 35 45 42 31 26 25 28 30 31 31 30 31 31 31 30 28 28 26 29 24 18 25 26 27 28 29 28 25 26 25 28 29 30 34 30 29
48 49 50 50 50 46 38 38 43 43 35 33 26 17 21 29 26 25 30 28 29 28 28 26 24 24 25 20 22 23 24 25 25 25 24 25 25 24 24 26 26 26 26 26
47 48 49 43 36 33 33 44 41 38 35 28 22 15 13 28 24 25 26 28 22 26 21 22 25 21 18 23 23 22 23 24 23 23 23 22 22 22 23 23 23 23 23 24
47 44 33 27 30 40 41 34 31 30 29 28 23 24 18 23 23 22 21 23 22 13 20 24 20 17 23 23 21 21 20 22 22 18 18 20 19 21 19 20 21 22 23 24
34 29 24 32 36 31 28 22 23 20 17 25 23 21 18 24 16 19 24 19 21 14 15 17 12 12 11 11 12 13 12 17 15 16 18 21 19 17 17 19 21 22 22 22
34 31 32 30 25 18 20 17 18 16 15 19 16 18 22 24 27 22 23 18 17 11 9 6 4 8 15 11 8 10 11 15 16 17 17 17 18 17 15 14 17 20 21 22
32 26 21 19 10 14 15 8 7 9 16 18 18 17 21 22 24 21 19 14 13 16 6 4 4 11 13 7 8 12 13 14 16 15 16 16 14 18 12 11 16 15 13 17
23 18 11 11 14 7 10 11 13 18 20 20 21 19 20 21 17 17 13 13 12 -1 -8 -2 4 10 10 9 12 12 12 12 12 14 15 15 15 14 16 17 14 14 14 17
16 18 11 10 13 10 14 14 18 19 22 22 19 18 19 14 12 12 12 6 -1 -0 -0 6 11 14 10 12 16 13 12 8 6 7 9 10 12 11 13 15 14 15 16 16
10 9 5 14 12 13 14 16 15 19 18 19 18 12 11 9 10 6 7 4 0 6 8 13 13 15 14 15 16 15 9 7 8 5 10 13 11 11 13 12 11 12 14 15
1 5 16 7 5 4 9 10 15 12 11 5 -1 -1 -0 -3 -6 -6 -2 -4 3 9 12 15 12 9 9 9 13 16 15 13 10 4 7 9 9 2 -0 6 13 13 15 15
MSLP
1020.15 1020.16 1020.41 1020.52 1020.67 1020.16 1020.16 1019.92 1020.63 1020.76 1020.97 1020.91 1019.93 1018.99 1018.46 1017.89 1017.53 1017.63 1017.86 1017.97 1018.54 1018.99 1019.29 1018.99 1019.26 1019.12 1019.22 1018.98 1019.25 1020.10 1020.18 1020.89 1021.19 1020.61 1020.39 1020.71 1021.03 1021.57 1022.21 1023.21 1023.81 1023.53 1022.41 1018.65
1019.74 1020.08 1020.19 1020.28 1020.48 1020.54 1020.31 1020.09 1020.31 1020.59 1021.08 1020.28 1019.82 1019.45 1018.85 1018.40 1018.11 1017.98 1017.99 1018.33 1018.29 1018.44 1019.01 1019.38 1018.93 1018.79 1018.74 1018.92 1019.32 1019.71 1020.26 1020.85 1021.20 1020.39 1020.18 1020.21 1020.66 1021.05 1021.22 1021.72 1022.64 1022.84 1021.72 1018.06
1019.72 1019.78 1019.81 1020.03 1020.25 1020.51 1020.82 1020.28 1020.50 1020.73 1020.59 1020.41 1020.01 1019.61 1019.19 1019.06 1018.71 1018.35 1018.22 1018.37 1018.58 1018.98 1018.76 1019.00 1018.89 1019.12 1019.29 1019.33 1019.40 1019.68 1020.31 1020.80 1020.87 1020.83 1020.51 1020.34 1020.27 1019.77 1020.03 1020.83 1021.59 1020.90 1019.68 1017.52
1019.47 1019.71 1019.49 1019.59 1019.87 1020.17 1021.15 1019.91 1019.37 1019.53 1020.28 1020.22 1019.99 1019.72 1019.07 1019.10 1019.13 1019.00 1018.77 1018.64 1018.54 1018.80 1019.14 1019.20 1019.12 1019.41 1019.57 1019.65 1019.91 1020.48 1020.86 1020.66 1020.92 1020.44 1020.86 1021.03 1020.34 1019.55 1019.43 1019.83 1019.36 1019.48 1017.57 1017.80
1019.26 1019.42 1019.39 1019.43 1019.21 1019.86 1020.41 1020.21 1019.50 1019.58 1019.55 1019.42 1019.69 1019.36 1019.11 1019.07 1019.01 1019.33 1019.28 1018.97 1018.90 1019.00 1018.99 1019.13 1019.23 1019.56 1019.93 1020.01 1020.31 1020.61 1020.85 1020.62 1020.94 1020.45 1020.28 1020.80 1019.92 1019.53 1019.36 1018.53 1018.33 1018.24 1017.29 1016.51
1018.49 1018.75 1019.11 1019.05 1018.98 1019.41 1019.48 1019.70 1019.33 1019.33 1018.78 1018.85 1019.12 1018.61 1018.18 1017.84 1018.40 1018.97 1019.18 1019.06 1019.17 1019.09 1018.55 1018.65 1018.96 1019.03 1019.62 1020.41 1020.83 1021.01 1021.06 1020.84 1021.24 1020.18 1020.15 1020.05 1019.09 1018.27 1018.16 1017.28 1016.87 1016.84 1017.26 1015.50
1017.99 1018.14 1018.24 1018.66 1018.86 1018.74 1019.10 1019.09 1019.23 1019.33 1018.46 1018.24 1017.77 1017.33 1017.80 1017.93 1017.97 1018.21 1018.51 1018.63 1018.84 1018.60 1018.30 1018.71 1019.10 1019.59 1019.81 1020.11 1020.65 1020.26 1020.68 1020.80 1020.66 1020.32 1020.14 1019.02 1017.06 1016.68 1016.34 1016.09 1016.29 1016.39 1016.16 1015.98
1017.34 1017.55 1017.79 1017.90 1018.09 1018.45 1018.94 1018.81 1018.69 1018.63 1018.25 1018.34 1018.05 1017.87 1017.78 1017.69 1017.85 1018.09 1018.39 1018.44 1018.34 1018.28 1019.03 1019.53 1019.89 1020.21 1020.29 1019.53 1019.48 1019.97 1019.57 1020.37 1020.10 1019.79 1019.49 1017.92 1016.70 1016.23 1016.36 1016.29 1016.19 1016.01 1016.39 1016.34
1016.77 1017.01 1017.18 1017.40 1017.59 1017.87 1018.35 1018.16 1018.71 1018.53 1017.41 1016.64 1017.01 1017.33 1017.65 1017.51 1017.55 1018.18 1018.16 1018.42 1018.53 1018.75 1019.17 1019.53 1019.46 1019.42 1019.10 1019.32 1019.38 1019.28 1019.62 1019.69 1020.04 1019.45 1018.16 1017.42 1016.26 1015.68 1015.64 1016.09 1016.42 1015.94 1016.41 1017.17
1016.15 1016.42 1016.61 1016.77 1016.95 1017.12 1017.93 1017.84 1018.08 1018.15 1017.63 1016.81 1016.71 1016.85 1016.49 1016.93 1017.07 1017.44 1017.98 1018.38 1018.85 1018.82 1018.38 1018.67 1018.45 1018.59 1018.34 1018.57 1018.74 1019.23 1019.51 1019.34 1018.80 1018.19 1017.36 1016.16 1016.03 1016.20 1016.46 1017.01 1016.62 1016.26 1016.85 1017.64
1015.55 1015.74 1015.83 1016.16 1016.27 1016.34 1017.05 1017.25 1017.58 1017.60 1017.14 1016.83 1016.98 1016.72 1016.04 1016.18 1016.27 1016.58 1017.49 1018.29 1018.06 1018.45 1017.82 1018.03 1018.06 1017.51 1017.41 1018.04 1017.52 1017.85 1018.22 1018.57 1018.22 1017.99 1017.21 1016.23 1015.47 1016.66 1016.61 1016.07 1016.32 1016.56 1017.03 1017.61
1015.03 1015.10 1015.41 1015.55 1015.54 1015.89 1016.25 1016.40 1017.01 1016.85 1016.77 1016.94 1016.49 1016.06 1015.42 1015.08 1015.47 1015.87 1016.60 1016.73 1017.03 1016.92 1017.19 1017.20 1017.43 1017.29 1017.12 1017.28 1017.66 1017.49 1017.71 1017.09 1017.03 1017.15 1015.77 1015.37 1015.31 1015.47 1015.46 1015.70 1015.98 1016.48 1016.90 1017.38
1014.30 1014.79 1014.87 1014.61 1015.13 1015.11 1015.58 1016.00 1016.53 1016.70 1016.56 1016.48 1016.41 1015.96 1015.49 1015.55 1014.89 1015.07 1016.06 1016.17 1016.31 1016.36 1016.41 1016.93 1017.03 1017.26 1017.72 1017.86 1017.91 1017.84 1017.05 1016.66 1016.77 1016.67 1015.44 1015.52 1015.60 1015.65 1015.74 1016.03 1016.15 1016.46 1017.12 1017.33
1013.48 1013.86 1013.82 1014.20 1014.32 1014.46 1014.70 1015.30 1015.67 1016.08 1016.42 1016.51 1015.65 1015.15 1015.91 1015.86 1015.16 1014.97 1015.14 1015.17 1015.81 1016.20 1016.51 1016.84 1016.93 1017.35 1017.32 1017.61 1017.45 1017.54 1016.55 1016.68 1016.39 1016.05 1015.49 1015.64 1015.51 1015.54 1015.58 1015.98 1016.31 1016.72 1017.01 1017.56
1012.89 1013.15 1013.34 1013.76 1013.82 1013.70 1013.96 1014.67 1015.13 1015.15 1015.65 1015.74 1015.77 1015.67 1016.10 1016.02 1015.75 1015.04 1014.99 1015.28 1015.26 1015.32 1016.11 1016.73 1016.67 1016.65 1016.93 1017.89 1017.99 1017.29 1016.38 1015.59 1015.55 1014.90 1014.61 1014.91 1015.18 1015.02 1015.40 1016.01 1016.20 1016.58 1017.11 1017.91
1012.03 1012.36 1012.72 1013.07 1013.32 1013.66 1014.47 1014.36 1014.57 1014.31 1014.37 1015.61 1016.02 1016.21 1015.88 1015.85 1015.70 1015.61 1015.24 1015.25 1015.46 1015.33 1015.62 1015.70 1016.05 1016.09 1016.39 1017.20 1016.95 1014.97 1014.89 1014.51 1014.30 1014.52 1014.66 1014.97 1015.33 1015.49 1015.58 1015.78 1016.20 1016.64 1017.33 1017.85
1011.05 1011.55 1012.03 1012.40 1012.76 1013.45 1014.21 1014.56 1013.58 1013.44 1014.39 1015.38 1015.73 1016.15 1016.25 1016.18 1015.96 1016.17 1016.04 1016.01 1015.74 1015.71 1015.59 1016.25 1016.48 1016.66 1016.58 1016.45 1016.05 1014.70 1014.39 1014.54 1014.90 1014.94 1015.14 1015.66 1015.79 1015.94 1015.93 1016.17 1016.76 1017.20 1017.79 1018.47
1010.05 1010.66 1011.20 1011.73 1012.20 1012.95 1013.68 1013.61 1013.40 1013.49 1014.07 1014.40 1014.83 1015.77 1016.48 1016.28 1016.48 1016.68 1016.52 1016.49 1016.38 1016.27 1016.27 1016.84 1017.05 1017.43 1017.13 1016.63 1014.97 1015.03 1014.95 1015.14 1015.51 1015.62 1015.73 1015.88 1016.13 1016.58 1016.91 1017.13 1017.58 1018.17 1018.77 1019.34
1008.49 1009.84 1010.66 1011.70 1012.53 1013.16 1013.03 1012.84 1013.37 1013.72 1014.60 1014.46 1014.78 1015.97 1016.41 1016.34 1016.61 1016.80 1016.76 1016.70 1017.02 1017.18 1017.14 1017.26 1017.41 1017.47 1016.86 1015.38 1015.51 1015.67 1015.57 1015.55 1016.06 1016.50 1016.60 1016.80 1017.20 1017.70 1017.93 1018.16 1018.59 1018.97 1019.53 1019.92
1006.72 1009.61 1010.49 1011.96 1012.68 1012.88 1013.02 1013.30 1013.77 1013.88 1014.11 1014.55 1015.05 1015.90 1016.21 1016.23 1016.52 1016.86 1017.35 1017.34 1017.28 1017.62 1017.66 1017.78 1017.83 1016.99 1016.27 1016.46 1016.69 1016.36 1016.13 1016.25 1016.63 1017.23 1017.88 1018.00 1018.34 1018.56 1018.87 1019.11 1019.43 1019.66 1019.97 1020.26
1007.73 1009.76 1011.55 1012.88 1013.06 1013.35 1013.93 1014.02 1014.04 1014.38 1014.65 1014.71 1015.15 1015.47 1016.10 1016.35 1016.58 1016.87 1016.91 1016.90 1017.31 1017.95 1018.57 1018.96 1018.82 1018.17 1017.61 1017.54 1017.56 1017.22 1016.96 1017.02 1017.31 1017.46 1017.58 1017.87 1018.36 1019.08 1019.55 1019.90 1020.02 1020.23 1020.39 1020.58
1008.49 1009.80 1012.12 1013.39 1014.20 1014.48 1014.64 1015.00 1015.25 1015.09 1015.15 1015.29 1015.57 1015.75 1015.85 1016.09 1016.03 1016.28 1016.79 1017.19 1018.08 1018.79 1019.59 1020.12 1019.67 1018.69 1018.34 1018.46 1018.41 1018.06 1018.04 1018.09 1018.25 1018.13 1018.45 1018.84 1019.27 1019.66 1020.04 1020.33 1020.46 1020.50 1020.58 1020.72
1009.23 1010.97 1013.36 1014.66 1015.42 1015.46 1015.73 1016.10 1015.86 1015.77 1015.42 1015.57 1015.73 1015.93 1016.03 1016.39 1016.54 1016.77 1017.24 1017.96 1018.90 1019.49 1020.54 1020.53 1019.67 1019.09 1019.18 1019.40 1019.01 1019.01 1018.99 1018.88 1019.01 1019.34 1019.45 1019.69 1019.96 1020.21 1020.38 1020.57 1020.70 1020.78 1020.78 1020.85
1011.62 1013.22 1014.96 1015.78 1015.84 1016.23 1016.29 1016.38 1016.16 1016.01 1015.68 1015.73 1015.87 1016.36 1016.57 1016.97 1017.32 1017.72 1018.16 1019.32 1019.74 1021.08 1021.59 1020.76 1020.10 1019.86 1019.74 1019.56 1019.42 1019.45 1019.72 1019.90 1020.10 1020.06 1020.05 1020.12 1020.24 1020.35 1020.40 1020.45 1020.56 1020.60 1020.37 1020.24
1014.15 1015.02 1016.43 1016.95 1017.05 1017.14 1016.88 1016.61 1016.50 1016.57 1016.32 1016.42 1016.83 1017.37 1017.61 1018.09 1018.61 1019.08 1019.62 1020.37 1020.92 1021.25 1020.86 1020.39 1020.13 1019.99 1019.85 1019.68 1019.76 1019.93 1020.16 1020.43 1020.68 1020.40 1020.43 1020.38 1020.42 1020.48 1020.32 1020.13 1020.03 1019.99 1019.87 1019.76
1016.19 1017.39 1017.76 1017.62 1017.53 1017.60 1017.33 1017.30 1017.48 1017.57 1017.56 1017.59 1017.91 1018.67 1019.22 1019.92 1019.99 1020.34 1020.53 1020.97 1020.97 1020.77 1020.57 1020.37 1020.28 1020.29 1020.23 1020.24 1020.14 1019.98 1020.03 1020.18 1020.21 1020.18 1020.19 1020.13 1020.16 1020.20 1019.88 1019.43 1019.35 1019.24 1019.17 1018.94
1018.58 1018.98 1018.53 1018.66 1018.95 1018.97 1018.85 1018.62 1018.49 1018.49 1018.78 1019.41 1019.80 1020.59 1021.63 1022.02 1022.08 1021.96 1021.61 1021.67 1021.28 1021.06 1020.83 1020.63 1020.60 1020.65 1020.49 1020.32 1019.95 1019.68 1019.62 1019.65 1019.63 1019.62 1019.64 1019.63 1019.57 1019.57 1019.37 1019.11 1018.37 1018.31 1018.05 1017.81
Wind_Speed
7 3 3 2 7 10 2 2 3 2 2 2 3 5 5 4 3 2 4 4 7 5 4 5 8 9 9 4 8 5 5 4 4 9 2 2 2 7 7 5 6 4 2 10
10 8 6 6 4 6 2 3 1 1 1 4 4 1 1 4 6 6 5 8 8 5 7 5 5 4 2 4 5 4 3 3 3 5 1 2 5 6 5 4 2 6 4 9
11 11 11 8 7 6 3 3 2 1 2 0 3 8 6 10 4 3 5 4 3 3 6 8 4 6 2 1 3 4 3 3 7 11 3 3 5 7 8 9 4 7 14 23
11 12 11 11 12 11 2 3 3 5 3 5 10 1 3 2 6 3 3 4 9 7 5 6 6 4 3 2 4 3 1 6 6 8 6 5 6 6 11 11 14 10 21 12
13 13 11 12 11 13 4 4 3 3 2 2 12 13 10 12 7 5 4 3 6 5 8 9 6 5 4 6 3 6 5 4 3 5 8 12 18 16 15 18 16 17 23 23
11 13 13 11 11 11 3 3 2 3 5 5 7 8 17 16 10 6 13 11 5 7 14 11 6 4 7 5 4 6 4 3 2 11 4 6 13 16 18 14 14 15 18 25
11 12 13 14 14 10 3 3 2 3 5 10 13 8 15 15 14 15 4 9 14 5 6 5 4 3 3 6 10 9 5 3 3 3 2 11 8 2 7 17 17 13 8 8
15 12 15 15 16 15 5 1 3 5 9 6 7 14 10 10 9 12 9 4 3 6 4 3 0 1 3 8 13 14 14 9 6 7 6 12 14 6 7 8 8 9 15 6
14 13 14 15 15 12 6 6 6 6 4 14 10 7 9 8 5 3 8 1 1 2 3 3 7 7 7 5 3 4 8 12 10 9 8 8 3 3 3 4 7 5 5 5
15 15 16 16 15 18 7 4 6 4 3 3 6 9 9 6 5 3 2 5 2 4 6 8 6 6 6 6 6 6 4 5 16 16 12 4 7 6 2 2 7 4 5 5
14 15 15 16 16 16 10 5 5 6 5 4 5 11 5 2 7 6 5 3 2 3 6 4 4 5 7 5 6 8 9 8 5 5 7 12 5 5 7 4 3 5 5 6
16 15 16 15 15 16 13 4 2 2 7 2 3 12 17 17 8 7 7 2 6 5 5 4 2 4 3 4 6 1 6 8 6 9 8 1 7 3 3 5 5 6 5 6
17 17 17 17 15 16 13 4 4 2 1 3 2 7 4 4 5 3 5 3 5 3 2 3 2 3 3 4 5 2 4 4 4 2 4 6 7 4 4 6 4 5 2 5
19 18 17 18 16 16 15 3 4 3 2 2 3 3 3 6 5 3 3 3 3 4 2 3 3 2 5 4 2 6 5 7 6 6 4 4 5 7 6 6 5 6 6 6
20 19 18 18 17 16 10 4 5 4 4 2 2 1 3 3 6 4 3 6 6 2 4 3 5 2 4 1 1 5 7 9 6 7 7 5 6 5 7 9 8 7 8 6
21 20 19 18 17 14 1 3 3 9 5 2 3 4 1 2 3 4 1 2 1 3 3 2 3 2 4 5 5 7 6 5 4 4 2 4 1 3 3 7 7 7 8 6
22 21 20 19 17 5 4 3 3 9 4 3 3 3 2 0 1 1 1 2 0 0 1 3 2 2 4 2 6 4 7 6 5 3 6 1 2 2 4 5 6 8 8 6
20 21 21 19 17 9 5 4 3 6 1 2 4 1 1 3 2 2 0 1 1 0 0 1 2 2 1 6 4 4 2 5 4 5 1 2 6 6 6 6 6 8 7 6
28 24 21 3 2 3 2 6 8 3 2 2 2 5 4 4 2 1 1 1 1 1 2 2 4 3 7 5 6 6 6 6 7 5 6 7 7 7 6 6 6 8 6 4
33 13 4 3 3 8 8 3 3 3 2 2 3 4 2 3 2 1 3 2 2 2 1 1 3 5 3 2 3 2 3 6 9 7 4 5 4 6 5 5 4 5 4 3
5 3 4 3 7 3 2 3 3 0 1 2 2 3 4 1 4 3 3 2 2 2 2 2 3 4 4 4 5 4 4 4 4 3 4 5 7 7 6 4 4 3 2 2
9 11 7 4 3 2 3 1 1 2 4 2 4 3 2 2 1 2 2 3 2 4 2 3 4 5 4 3 4 5 4 7 7 4 8 7 7 5 5 3 2 2 3 3
4 7 5 1 4 4 4 5 4 1 2 2 2 3 2 2 1 2 2 3 2 2 2 4 5 3 4 2 2 4 5 6 6 5 5 5 4 4 4 3 4 4 4 5
5 4 4 0 2 1 2 2 2 1 1 3 3 3 2 1 2 1 3 2 2 2 1 6 3 3 5 3 1 3 2 3 3 3 3 3 3 4 3 5 4 5 7 6
5 3 2 1 1 2 2 1 0 3 1 2 3 3 2 2 3 2 3 2 2 5 6 3 2 4 3 1 2 2 1 1 3 2 3 4 4 5 7 6 6 7 7 7
5 6 3 2 1 2 3 3 2 3 2 1 3 3 3 2 2 3 4 5 5 3 2 2 2 3 5 4 4 4 3 4 5 5 5 7 6 6 8 5 6 7 8 10
6 3 2 2 2 2 1 1 2 1 2 2 3 5 3 1 4 2 3 5 3 2 2 2 2 3 5 4 5 6 5 6 5 4 5 6 5 3 2 9 9 8 10 11
Wind_Direction
224 222 288 310 322 319 174 204 201 99 284 205 227 221 189 153 214 142 202 150 187 225 225 237 228 225 202 161 153 199 218 174 233 215 10 26 160 192 167 161 232 243 192 267
206 217 229 239 263 292 294 254 193 147 246 232 209 275 237 235 183 193 171 213 202 178 209 243 232 202 350 145 180 186 212 230 295 300 57 102 201 200 186 104 85 200 211 265
260 222 212 214 218 276 305 156 230 190 191 322 231 255 260 249 241 239 174 200 107 177 202 201 227 222 181 158 199 129 174 219 206 247 234 120 200 188 191 189 167 253 230 267
262 261 243 213 221 206 168 250 216 176 195 202 213 196 11 268 219 225 221 207 210 183 232 217 223 217 229 215 168 43 160 242 220 253 267 266 241 212 184 196 219 209 269 241
245 261 253 256 221 219 198 269 215 173 153 186 205 208 217 246 248 148 258 242 219 226 244 239 221 194 189 213 171 175 183 274 206 264 235 253 264 249 230 232 239 241 250 269
249 251 254 261 251 207 228 217 253 300 185 185 189 203 213 220 219 240 252 244 224 213 230 234 246 201 153 186 204 215 221 201 201 271 215 278 269 237 217 224 227 224 240 246
253 258 258 239 248 236 209 242 214 221 263 217 220 218 205 213 204 212 216 207 229 241 103 90 63 60 231 215 226 178 203 224 210 250 112 259 264 276 221 216 239 218 254 255
240 246 260 258 237 241 238 283 237 208 243 252 226 225 218 226 224 221 237 227 207 147 101 99 229 297 300 231 227 214 205 223 248 250 229 285 287 207 194 171 258 205 224 238
253 256 252 256 250 259 254 232 228 286 238 226 220 229 215 226 195 163 224 123 117 64 143 164 188 209 198 223 270 20 210 224 240 227 235 249 251 187 154 121 276 207 161 162
247 250 256 258 249 226 228 276 204 218 278 244 155 212 199 177 176 202 143 168 175 163 199 214 188 213 188 205 197 183 177 206 224 236 246 241 251 144 153 163 269 160 161 168
247 253 259 264 260 247 207 229 237 234 258 236 225 244 188 184 190 191 150 113 184 170 215 219 213 199 200 195 200 180 177 180 206 228 254 266 128 75 178 195 164 163 160 170
249 249 259 263 268 263 223 225 190 245 233 289 315 255 236 225 214 211 183 229 173 182 196 184 186 223 155 181 239 85 215 194 185 194 213 347 201 199 195 172 160 192 172 179
250 253 255 261 265 263 224 207 171 198 321 251 193 211 281 269 200 210 206 187 190 192 189 156 170 193 153 189 242 228 257 162 221 123 214 215 215 225 191 184 188 170 193 161
247 251 255 261 260 262 239 207 165 130 136 258 257 9 275 311 298 197 236 155 112 129 126 185 155 186 176 217 270 212 190 138 194 258 277 303 260 232 198 186 167 158 145 161
252 252 252 259 268 266 268 194 184 189 178 279 298 51 221 281 297 246 189 179 150 157 151 199 202 163 140 169 126 242 185 191 178 222 203 187 226 229 174 177 185 167 146 140
252 252 250 252 259 262 193 215 232 196 140 178 267 1 276 359 348 281 229 151 125 164 187 165 216 101 161 190 216 248 199 203 187 226 177 185 118 354 182 181 175 161 156 141
246 243 242 244 246 223 204 238 198 177 127 175 229 225 324 295 20 8 45 10 343 183 150 203 198 190 193 209 228 204 205 205 206 184 124 137 175 188 102 118 126 131 102 103
238 249 235 235 234 227 218 202 136 117 66 220 208 220 84 194 169 180 291 148 128 238 70 82 170 150 233 248 232 229 134 128 133 150 107 155 117 93 86 92 107 104 104 111
223 237 223 216 107 184 240 145 110 71 178 275 90 165 209 153 120 92 75 92 167 104 208 196 160 166 225 239 216 202 188 166 166 114 103 100 104 112 99 97 103 117 121 111
205 170 131 144 204 161 116 54 182 187 158 162 169 148 178 121 136 132 111 213 206 208 206 121 224 253 285 320 322 320 196 155 135 107 115 120 125 136 129 116 105 110 121 117
80 109 85 75 30 65 64 210 149 27 328 180 101 130 141 241 128 167 203 171 151 190 220 205 247 266 253 302 311 320 283 151 114 133 111 109 129 143 136 135 136 139 156 190
108 105 88 68 42 57 111 25 65 162 215 160 145 181 140 140 166 126 158 155 140 221 100 80 265 256 291 343 349 8 49 114 100 84 108 107 116 131 134 156 188 226 265 287
57 53 65 78 289 83 165 197 278 263 180 176 152 111 113 110 66 89 130 157 152 92 81 233 234 290 329 316 7 48 47 78 97 90 92 111 123 143 160 209 225 239 248 251
65 75 64 63 76 306 172 168 165 125 183 137 101 83 91 112 81 31 115 56 95 70 2 241 258 281 298 288 29 71 76 85 117 142 155 174 196 239 244 233 218 235 252 249
75 42 86 46 236 228 237 204 252 14 10 106 110 80 77 54 105 37 109 70 255 201 227 236 296 334 344 29 26 27 336 270 267 242 224 239 247 246 267 245 236 229 244 249
77 50 68 281 61 35 31 30 54 20 18 67 39 109 90 71 99 117 202 143 221 253 236 282 332 9 11 5 341 314 257 245 248 244 248 263 251 242 253 262 237 233 234 248
51 11 24 104 90 166 304 36 0 23 96 137 106 68 200 90 51 349 204 190 237 266 303 302 274 272 286 285 293 286 275 271 257 246 241 246 240 238 254 266 266 240 247 246